Regional Weather Roundup
Issued by NWS Newport/Morehead, NC

Current Version | Previous Version | Text Only | Print | Product List | Glossary Off
Versions: 1 2 3 4 5 6 7 8 9 10 11 12 13 14 15 16 17 18 19 20 21 22 23 24 25 26 27 28 29 30 31 32 33 34 35 36 37 38 39 40 41 42 43 44 45 46 47 48 49 50
000 ASUS42 KMHX 181813 RWRMHX WEATHER ROUNDUP FOR EASTERN NORTH CAROLINA NATIONAL WEATHER SERVICE NEWPORT/MOREHEAD CITY NC 100 PM EST SUN FEB 18 2018 NOTE: "FAIR" INDICATES FEW OR NO CLOUDS BELOW 12,000 FEET WITH NO SIGNIFICANT WEATHER AND/OR OBSTRUCTIONS TO VISIBILITY NCZ015>017-031-032-045>047-102-103-181900- NORTH COAST CITY SKY/WX TMP DP RH WIND PRES REMARKS EDENTON FAIR 55 40 58 NE10 30.40S ELIZABETH CITY FAIR 52 39 61 NE17 30.40S KITTY HAWK FAIR 48 36 64 NE12G20 30.40S MANTEO FAIR 49 35 57 NE18G24 30.42R $$ NCZ045>047-081-094-103-104-181900- CENTRAL COAST CITY SKY/WX TMP DP RH WIND PRES REMARKS FRISCO FAIR 52 40 63 NE17G28 30.38F $$ NCZ095-097-098-100-101-181900- SOUTHERN COAST CITY SKY/WX TMP DP RH WIND PRES REMARKS BEAUFORT CLOUDY 58 42 55 NE15G21 30.36S CEDAR ISLAND NOT AVBL JACKSONVILLE CLOUDY 62 39 42 NE7 30.33F PINEY ISLAND NOT AVBL WILMINGTON PTSUNNY 63 47 55 SE12 30.33S $$ NCZ011>013-027>030-043-044-078>080-089-090>093-098-181900- COASTAL PLAIN CITY SKY/WX TMP DP RH WIND PRES REMARKS AHOSKIE FAIR 53 40 59 NE9 30.39F HAZE CLINTON FAIR 62 40 44 N10 30.35F ELIZABETHTOWN NOT AVBL GOLDSBORO FAIR 61 38 42 NE12 30.33F GREENVILLE FAIR 59 39 47 NE8 30.36F HAVELOCK NOT AVBL KENANSVILLE FAIR 61 39 44 NE6 30.35F KINSTON FAIR 63 34 34 NE10 30.35F NEW BERN FAIR 58 44 60 NE16 30.37R RICHLANDS PTSUNNY 63 39 41 N12 30.34F ROCKY MOUNT FAIR 60 36 40 N8 30.36F WASHINGTON FAIR 58 40 52 NE9 30.37F WHITEVILLE FAIR 63 45 50 NE7 30.32F $$ AMZ130-135-150-152-154-156-158-170-250-252-270-ANZ085-086-088-633-658-670-181900- MARINE OBSERVATIONS STATION/POSITION TIME TEMP WIND PRES WAVE SWELL AIR SEA DIR/SP/G HT/PER HT/PER (UTC) (F) (DEG/KT/KT) (MB) (FT/S) (FT/S) CHESAPEAKE LIGHT NOT AVBL 64 E VA BEACH 1750 45 50 10/ 21/ 27 1029.2 7/ 6 DUCK 1736 44 45 10/ 11/ 13 1029.4 2 E DUCK 1800 44 N/A 3/ 6 OREGON INLET 1736 48 48 10/ 16/ 21 1029.4 13E OREGON INLT 1748 46 N/A 6/ 6 2/10 HATTERAS CG 1736 49 56 30/ 18/ 25 1028.5 DIAMOND BUOY 1750 52 20/ 23/ 31 N/A 5/ 5 2/15 CAPE LOOKOUT 1800 40/ 23/ 26 1028.7 BEAUFORT LAB 1736 55 53 40/ 12/ 15 1028.1 30 SE NEW RVR IN 1708 57 67 70/ 17/ 21 1027.5 30 SE NEW RVR IN 1800 67 N/A 5/10 2/11 27 SE WRIGHTSVLE 1708 58 64 70/ 19/ 27 1027.4 5 SE WRIGHTSVLE 1708 54 54 80/ 10/ 16 1027.2 225 S CAPE HAT 1750 70 73 20/ 19/ 23 1023.6 4/10 2/10 41 SE CHARLESTON 1750 65 68 50/ 17/ 19 1025.0 $$

USA.gov is the U.S. government's official web portal to all federal, state and local government web resources and services.